CW3783 Weather Reports


Display with metric or nautical units.
time (UTC)temp
F
wind
direction
speed
MPH
gust
MPH
rain 1hr
in
rain 24hr
in
rain mn
in
humidity
%
barometer
mb
20260901055306 77 239 1.0 2.0 0.00 0.00 0.00 88 1015.4
20260901054804 77 239 0.0 2.0 0.00 0.00 0.00 88 1015.3
20260901054304 77 239 1.0 3.0 0.00 0.00 0.00 88 1015.3
20260901053804 77 239 1.0 3.0 0.00 0.00 0.00 88 1015.5
20260901053304 77 243 1.0 3.0 0.00 0.00 0.00 87 1015.5
20260901052804 77 225 1.0 3.0 0.00 0.00 0.00 87 1015.6
20260901052307 77 299 1.0 2.0 0.00 0.00 0.00 87 1015.6
20260901051804 77 299 1.0 2.0 0.00 0.00 0.00 87 1015.7
20260901051304 77 299 0.0 2.0 0.00 0.00 0.00 86 1015.6
20260901050804 77 299 1.0 3.0 0.00 0.00 0.00 86 1015.7
20260901050304 77 299 0.0 3.0 0.00 0.00 0.00 86 1015.8
20260901044804 77 299 0.0 0.0 0.00 0.00 0.00 86 1016.0
20260901044304 77 299 0.0 0.0 0.00 0.00 0.00 86 1016.0
20260901043804 77 299 0.0 0.0 0.00 0.00 0.00 86 1016.0
20260901043304 77 299 0.0 0.0 0.00 0.00 0.00 86 1016.0
20260901042804 77 299 0.0 0.0 0.00 0.00 0.00 86 1016.1
20260901042306 77 299 0.0 0.0 0.00 0.00 0.00 86 1016.2
20260901041804 77 299 0.0 1.0 0.00 0.00 0.00 86 1016.3
20260901041304 77 299 0.0 2.0 0.00 0.00 0.00 86 1016.2
20260901040304 77 299 0.0 1.0 0.00 0.00 0.00 85 1016.2
20260901035804 77 299 1.0 2.0 0.00 0.00 0.00 85 1016.2
20260901035306 77 299 1.0 2.0 0.00 0.00 0.00 85 1016.1
20260901034804 77 299 0.0 2.0 0.00 0.00 0.00 85 1016.1
20260901034304 77 299 1.0 3.0 0.00 0.00 0.00 85 1016.2
20260901033304 77 309 2.0 3.0 0.00 0.00 0.00 85 1016.3
20260901032804 77 212 1.0 3.0 0.00 0.00 0.00 85 1016.4
20260901032306 77 212 2.0 3.0 0.00 0.00 0.00 85 1016.4
20260901031804 77 212 1.0 3.0 0.00 0.00 0.00 85 1016.4
20260901031304 77 212 1.0 3.0 0.00 0.00 0.00 84 1016.4
20260901030804 77 212 1.0 3.0 0.00 0.00 0.00 84 1016.4
20260901030303 77 212 0.0 1.0 0.00 0.00 0.00 84 1016.3
20260901025306 78 212 1.0 2.0 0.00 0.00 0.00 84 1016.4
20260901024804 78 212 1.0 2.0 0.00 0.00 0.00 83 1016.4
20260901024304 78 212 0.0 2.0 0.00 0.00 0.00 83 1016.5
20260901023804 78 212 0.0 1.0 0.00 0.00 0.00 83 1016.5
20260901023304 78 212 1.0 2.0 0.00 0.00 0.00 83 1016.5
20260901022804 78 212 0.0 0.0 0.00 0.00 0.00 83 1016.4
20260901022306 78 212 0.0 0.0 0.00 0.00 0.00 83 1016.4
20260901021804 78 212 0.0 0.0 0.00 0.00 0.00 82 1016.3
20260901020804 78 212 0.0 0.0 0.00 0.00 0.00 82 1016.1
20260901020304 78 212 0.0 0.0 0.00 0.00 0.00 82 1016.1
20260901015804 78 212 0.0 0.0 0.00 0.00 0.00 82 1016.0
20260901015305 78 212 0.0 0.0 0.00 0.00 0.00 81 1016.0
20260901014804 78 212 0.0 0.0 0.00 0.00 0.00 81 1016.1
20260901014304 78 212 0.0 0.0 0.00 0.00 0.00 81 1016.1
20260901013803 79 212 0.0 0.0 0.00 0.00 0.00 81 1016.1
20260901013304 79 212 0.0 0.0 0.00 0.00 0.00 81 1016.0
20260901012804 79 212 0.0 0.0 0.00 0.00 0.00 81 1016.1
20260901012306 79 212 0.0 0.0 0.00 0.00 0.00 81 1016.1
20260901011804 79 212 0.0 0.0 0.00 0.00 0.00 80 1016.0
20260901011304 79 212 0.0 1.0 0.00 0.00 0.00 81 1016.0
20260901010804 79 212 1.0 2.0 0.00 0.00 0.00 81 1015.9
20260901010304 79 212 1.0 3.0 0.00 0.00 0.00 81 1016.0
20260901005306 79 212 2.0 3.0 0.00 0.00 0.00 80 1015.9
20260901004804 80 212 1.0 5.0 0.00 0.00 0.00 80 1015.9
20260901004304 80 203 2.0 3.0 0.00 0.01 0.00 79 1015.9
20260901003304 80 185 1.0 2.0 0.00 0.07 0.00 78 1016.0
20260901002804 80 185 0.0 2.0 0.00 0.07 0.00 78 1016.1
20260901002305 80 185 0.0 3.0 0.00 0.07 0.00 77 1016.0
20260901001304 80 185 1.0 2.0 0.00 0.07 0.00 77 1016.0
20260901000804 81 185 1.0 2.0 0.00 0.07 0.00 77 1016.0
20260901000304 81 185 0.0 3.0 0.00 0.07 0.00 77 1016.0
20260831235805 81 185 1.0 3.0 0.00 0.07 0.00 77 1015.9
20260831235306 81 172 5.0 6.0 0.00 0.07 0.00 77 1015.8
20260831234804 81 179 3.0 5.0 0.00 0.07 0.00 76 1015.7
20260831233804 81 162 3.0 5.0 0.00 0.07 0.00 75 1015.8
20260831233304 82 157 3.0 6.0 0.00 0.07 0.00 75 1015.8
20260831232803 82 167 3.0 5.0 0.00 0.07 0.00 75 1015.8
20260831232305 82 133 2.0 5.0 0.00 0.07 0.00 74 1015.8
20260831231803 82 149 2.0 3.0 0.00 0.07 0.00 74 1015.9
20260831231304 83 162 2.0 6.0 0.00 0.07 0.00 73 1016.0
20260831230804 83 113 4.0 7.0 0.00 0.07 0.00 73 1016.0
20260831230304 83 203 0.0 0.0 0.00 0.07 0.00 72 1016.0
20260831225306 83 203 0.0 2.0 0.00 0.07 0.00 71 1016.1
20260831224804 83 203 1.0 2.0 0.00 0.07 0.00 71 1016.3
20260831224304 83 203 0.0 1.0 0.00 0.07 0.00 71 1016.4
20260831223804 83 147 1.0 3.0 0.00 0.07 0.00 71 1016.5
20260831222804 83 291 0.0 1.0 0.00 0.07 0.00 70 1016.4
20260831221804 83 291 0.0 0.0 0.00 0.07 0.00 70 1016.5
20260831221304 83 291 0.0 0.0 0.00 0.07 0.00 69 1016.5
20260831215804 84 293 0.0 1.0 0.00 0.07 0.00 69 1016.6
20260831215306 84 293 0.0 1.0 0.00 0.07 0.00 68 1016.6
20260831214804 84 293 0.0 0.0 0.00 0.07 0.00 67 1016.5
20260831214304 84 293 0.0 2.0 0.00 0.07 0.00 67 1016.5
20260831213804 84 310 0.0 3.0 0.00 0.07 0.00 67 1016.5
20260831213304 84 0 0.0 2.0 0.00 0.07 0.00 67 1016.5
20260831212804 84 1 1.0 2.0 0.00 0.07 0.00 67 1016.4
20260831212306 84 302 1.0 3.0 0.00 0.07 0.00 68 1016.3
20260831211804 84 324 0.0 1.0 0.00 0.07 0.00 67 1016.4
20260831211304 84 324 0.0 2.0 0.00 0.07 0.00 67 1016.4
20260831210805 84 315 2.0 3.0 0.00 0.07 0.00 67 1016.5
20260831210304 84 4 2.0 3.0 0.00 0.07 0.00 67 1016.4
20260831205804 84 9 3.0 3.0 0.00 0.07 0.00 67 1016.4
20260831205305 84 11 3.0 6.0 0.00 0.07 0.00 66 1016.5
20260831204804 84 2 1.0 5.0 0.00 0.07 0.00 67 1016.5
20260831204304 84 11 3.0 5.0 0.00 0.07 0.00 67 1016.5
20260831203804 84 352 1.0 3.0 0.00 0.07 0.00 68 1016.6
20260831203304 84 358 3.0 3.0 0.00 0.07 0.00 68 1016.6
20260831202804 84 14 1.0 3.0 0.00 0.07 0.00 67 1016.5
20260831201304 84 350 2.0 3.0 0.00 0.07 0.00 67 1016.6
20260831200803 84 349 1.0 3.0 0.00 0.07 0.00 67 1016.6
20260831200304 84 7 2.0 3.0 0.00 0.07 0.00 67 1016.6
20260831195803 84 57 0.0 3.0 0.00 0.07 0.00 67 1016.7
20260831195306 84 57 1.0 3.0 0.00 0.07 0.00 67 1016.7
20260831194805 84 57 0.0 0.0 0.00 0.07 0.00 67 1016.7
20260831193803 84 62 0.0 1.0 0.00 0.07 0.00 66 1016.8
20260831193304 84 62 1.0 2.0 0.00 0.07 0.00 66 1016.8
20260831192804 84 13 0.0 1.0 0.00 0.07 0.00 67 1016.9
20260831191805 84 220 1.0 2.0 0.00 0.07 0.00 67 1017.0
20260831191303 84 86 1.0 3.0 0.00 0.07 0.00 66 1017.1
20260831190803 84 74 2.0 3.0 0.00 0.07 0.00 66 1017.2
20260831190303 84 6 1.0 3.0 0.00 0.07 0.00 67 1017.2
20260831185306 84 67 3.0 5.0 0.00 0.07 0.00 66 1017.3
20260831184804 84 27 2.0 3.0 0.00 0.07 0.00 66 1017.4
20260831183804 84 100 0.0 3.0 0.00 0.07 0.00 66 1017.4
20260831183303 84 37 2.0 3.0 0.00 0.07 0.00 67 1017.4
20260831182305 84 18 2.0 3.0 0.00 0.07 0.00 66 1017.4
20260831181803 84 23 0.0 2.0 0.00 0.07 0.00 66 1017.4
20260831181303 84 87 2.0 3.0 0.00 0.07 0.00 66 1017.3
20260831180804 84 136 3.0 5.0 0.00 0.07 0.00 66 1017.4
20260831180304 84 153 3.0 5.0 0.00 0.07 0.00 66 1017.3
20260831175804 84 64 1.0 3.0 0.00 0.07 0.00 66 1017.4
20260831175306 84 45 2.0 3.0 0.00 0.07 0.00 66 1017.5
20260831174804 84 137 4.0 6.0 0.00 0.07 0.00 66 1017.5
20260831174304 84 79 3.0 7.0 0.00 0.07 0.00 66 1017.5
20260831173804 84 57 2.0 7.0 0.00 0.07 0.00 65 1017.5
20260831172306 85 96 6.0 9.0 0.00 0.07 0.00 65 1017.5
20260831171804 85 121 3.0 7.0 0.00 0.07 0.00 64 1017.6
20260831171304 85 105 4.0 8.0 0.00 0.07 0.00 63 1017.7
20260831170803 85 144 3.0 10.0 0.00 0.07 0.00 62 1017.7
20260831170304 85 92 3.0 7.0 0.00 0.07 0.00 62 1017.7
20260831165305 85 180 4.0 8.0 0.00 0.07 0.00 64 1017.8
20260831164804 85 125 5.0 10.0 0.00 0.07 0.00 62 1017.8
20260831163804 85 116 8.0 12.0 0.00 0.07 0.00 62 1017.8
20260831163304 85 114 7.0 12.0 0.00 0.07 0.00 65 1017.8
20260831162804 85 129 1.0 8.0 0.00 0.07 0.00 62 1018.0
20260831162306 85 158 5.0 9.0 0.00 0.07 0.00 63 1018.0
20260831161805 85 109 3.0 9.0 0.00 0.07 0.00 64 1018.0
20260831161304 85 139 4.0 10.0 0.00 0.07 0.00 65 1017.9
20260831160804 84 124 7.0 13.0 0.00 0.07 0.00 65 1017.8
20260831160304 84 101 3.0 9.0 0.00 0.07 0.00 64 1017.9
20260831155803 84 132 7.0 13.0 0.00 0.07 0.00 64 1017.9
20260831154804 83 75 6.0 10.0 0.00 0.07 0.00 69 1018.1
20260831154303 83 72 7.0 13.0 0.00 0.07 0.00 68 1018.1
20260831153803 83 97 7.0 12.0 0.00 0.07 0.00 70 1018.0
20260831153303 83 109 7.0 10.0 0.00 0.07 0.00 71 1018.0
20260831152804 82 73 6.0 10.0 0.00 0.07 0.00 71 1018.1
20260831145804 80 76 6.0 10.0 0.00 0.07 0.00 76 1018.1
20260831145306 80 82 3.0 10.0 0.00 0.07 0.00 77 1018.1
20260831144304 80 107 7.0 10.0 0.00 0.07 0.00 76 1018.2
20260831143804 80 54 7.0 12.0 0.00 0.07 0.00 77 1018.1
20260831143303 80 72 4.0 12.0 0.00 0.07 0.00 78 1018.1
20260831142306 79 101 9.0 12.0 0.00 0.07 0.00 78 1018.1
20260831141804 79 68 7.0 12.0 0.00 0.07 0.00 78 1018.1
20260831141304 79 83 5.0 10.0 0.00 0.07 0.00 78 1018.1
20260831140804 78 82 6.0 10.0 0.00 0.07 0.00 80 1018.1
20260831140304 78 102 6.0 10.0 0.00 0.07 0.00 80 1018.0
20260831135804 77 128 3.0 10.0 0.00 0.07 0.00 80 1017.9
20260831135306 77 86 3.0 7.0 0.00 0.07 0.00 81 1018.0
20260831134804 77 95 3.0 8.0 0.00 0.07 0.00 81 1018.2
20260831134304 77 62 3.0 7.0 0.00 0.07 0.00 81 1018.0
20260831133804 77 107 3.0 8.0 0.00 0.07 0.00 81 1018.0
20260831133304 77 70 4.0 8.0 0.00 0.07 0.00 81 1018.1
20260831132306 77 79 3.0 8.0 0.00 0.07 0.00 81 1018.2
20260831131804 77 81 4.0 8.0 0.00 0.07 0.00 81 1018.1
20260831131304 77 96 3.0 8.0 0.00 0.07 0.00 81 1018.1
20260831130804 77 70 5.0 9.0 0.00 0.07 0.00 81 1018.2
20260831130304 77 82 7.0 12.0 0.00 0.07 0.00 82 1018.1
20260831125803 77 63 5.0 10.0 0.00 0.07 0.00 83 1018.0
20260831125306 76 72 3.0 9.0 0.00 0.07 0.00 84 1017.9
20260831124804 76 77 4.0 9.0 0.00 0.07 0.00 85 1017.8
20260831124304 76 79 6.0 12.0 0.00 0.07 0.00 87 1017.8
20260831123804 76 69 5.0 8.0 0.00 0.07 0.00 89 1017.7
20260831123304 76 62 2.0 6.0 0.00 0.07 0.00 90 1017.7
20260831122306 76 70 3.0 5.0 0.00 0.07 0.00 92 1017.7
20260831121804 76 62 3.0 5.0 0.00 0.07 0.00 93 1017.7
20260831121304 75 33 2.0 3.0 0.00 0.07 0.00 93 1017.7
20260831120804 75 54 1.0 3.0 0.00 0.07 0.00 94 1017.6
20260831120304 75 54 1.0 5.0 0.00 0.07 0.00 94 1017.6
20260831115804 75 44 2.0 5.0 0.00 0.07 0.00 93 1017.6
20260831115306 75 2 3.0 5.0 0.00 0.07 0.00 93 1017.6
20260831114804 75 353 2.0 3.0 0.00 0.07 0.00 93 1017.6
20260831114303 74 353 1.0 3.0 0.00 0.07 0.00 93 1017.6
20260831113303 74 353 1.0 3.0 0.00 0.07 0.00 93 1017.5
20260831112804 74 353 2.0 3.0 0.00 0.07 0.00 93 1017.5
20260831112307 74 353 2.0 5.0 0.00 0.07 0.00 93 1017.5
20260831111303 73 353 2.0 3.0 0.00 0.07 0.00 93 1017.1
20260831110803 73 353 2.0 3.0 0.00 0.07 0.00 92 1017.1
20260831110303 73 353 1.0 2.0 0.00 0.07 0.00 92 1017.1
20260831105804 73 353 1.0 2.0 0.00 0.07 0.00 92 1017.0
20260831105306 73 353 1.0 2.0 0.00 0.07 0.00 92 1017.0
20260831104803 73 353 0.0 1.0 0.00 0.07 0.00 92 1017.0
20260831104303 73 353 0.0 2.0 0.00 0.07 0.00 92 1016.9
20260831103804 73 353 1.0 2.0 0.00 0.07 0.00 92 1016.9
20260831103303 73 353 1.0 3.0 0.00 0.07 0.00 92 1016.8
20260831102804 73 353 1.0 2.0 0.00 0.07 0.00 92 1016.8
20260831102306 73 353 1.0 2.0 0.00 0.07 0.00 92 1016.8
20260831101804 73 353 2.0 5.0 0.00 0.07 0.00 92 1016.8
20260831100804 73 23 2.0 3.0 0.00 0.07 0.00 92 1016.7
20260831100304 73 318 1.0 3.0 0.00 0.07 0.00 92 1016.7
20260831095804 73 318 1.0 1.0 0.00 0.07 0.00 92 1016.7
20260831094804 73 318 2.0 3.0 0.00 0.07 0.00 92 1016.5
20260831094304 73 318 0.0 0.0 0.00 0.07 0.00 92 1016.4
20260831093805 73 318 1.0 2.0 0.00 0.07 0.00 92 1016.4
20260831093303 73 318 0.0 1.0 0.00 0.07 0.00 92 1016.3
20260831092803 73 318 0.0 1.0 0.00 0.07 0.00 92 1016.4
20260831092306 73 318 0.0 0.0 0.00 0.07 0.00 92 1016.3
20260831091803 73 318 0.0 0.0 0.00 0.07 0.00 92 1016.3
20260831091303 73 318 0.0 0.0 0.00 0.07 0.00 92 1016.3
20260831090804 73 318 0.0 0.0 0.00 0.07 0.00 92 1016.3
20260831090303 73 318 0.0 0.0 0.00 0.07 0.00 92 1016.3
20260831085306 73 318 0.0 0.0 0.00 0.07 0.00 92 1016.3
20260831084804 73 318 0.0 2.0 0.00 0.07 0.00 92 1016.4
20260831084304 73 318 1.0 2.0 0.00 0.07 0.00 92 1016.4
20260831083804 73 318 0.0 1.0 0.00 0.07 0.00 92 1016.3
20260831083303 73 318 1.0 1.0 0.00 0.07 0.00 92 1016.3
20260831082803 73 318 1.0 1.0 0.00 0.07 0.00 92 1016.3
20260831082306 73 318 1.0 3.0 0.00 0.07 0.00 92 1016.3
20260831081804 73 318 1.0 2.0 0.00 0.07 0.00 92 1016.4
20260831081304 73 318 0.0 0.0 0.00 0.07 0.00 92 1016.4
20260831080804 73 318 0.0 0.0 0.00 0.07 0.00 92 1016.3
20260831080304 73 318 0.0 0.0 0.00 0.07 0.00 92 1016.4
20260831075804 73 318 0.0 0.0 0.00 0.07 0.00 92 1016.3
20260831075306 73 318 0.0 0.0 0.00 0.07 0.00 92 1016.3
20260831073804 73 318 1.0 2.0 0.00 0.07 0.00 92 1016.5
20260831073304 73 318 0.0 3.0 0.00 0.07 0.00 92 1016.5
20260831072803 73 318 1.0 3.0 0.00 0.07 0.00 92 1016.7
20260831072306 73 318 2.0 5.0 0.00 0.07 0.00 91 1016.7
20260831071803 73 25 1.0 3.0 0.00 0.07 0.00 91 1016.6
20260831071305 73 25 1.0 2.0 0.00 0.07 0.00 91 1016.4
20260831070804 73 25 0.0 1.0 0.00 0.07 0.00 91 1016.5
20260831070304 73 25 1.0 3.0 0.00 0.07 0.00 91 1016.6
20260831065804 73 25 1.0 3.0 0.00 0.07 0.00 91 1016.6
20260831065306 73 185 0.0 2.0 0.00 0.07 0.00 91 1016.6
20260831064804 73 185 1.0 2.0 0.00 0.07 0.00 90 1016.5
20260831064304 73 185 1.0 1.0 0.00 0.07 0.00 91 1016.5
20260831063803 73 185 1.0 3.0 0.00 0.07 0.00 91 1016.5
20260831063305 73 190 1.0 3.0 0.00 0.07 0.00 90 1016.4
20260831062803 73 281 0.0 2.0 0.00 0.07 0.00 90 1016.4
20260831062305 74 281 1.0 3.0 0.00 0.07 0.00 90 1016.5
20260831061804 74 281 0.0 0.0 0.00 0.07 0.00 90 1016.5
20260831061304 74 281 0.0 0.0 0.00 0.07 0.00 90 1016.5
20260831060804 74 281 0.0 1.0 0.00 0.07 0.00 89 1016.6